Volver al catálogo

DELTA 1 DEB

ActivoSSO
NORAD 7057·DEBRIS·🇺🇸 United States

Lanzado Nov 6, 1973 desde Vandenberg Space Force Base

Loading…

Próximos Pases (próximas 24 horas)

TLE

ActualizadoSource: Space-Track

Época: Sep 14, 2026, 12:37 UTC

1 07057U 73086AZ  26257.52618475 -.00000054  00000-0 -69463-4 0  9996
2 07057 102.4217 280.9545 0034495 159.6375   9.2446 12.33042843378915

Sigue DELTA 1 DEB en tiempo real con AllMySat

Download on the App Store